timestamp,gas_concentrations,,corrected_fluxes_and_quality_flags,,,,,,,,,,storage_terms,,,turbulence,,,footprint,,
ISOdate,CO2_1_1_1,H2O_1_1_1,Tau_1_1_1,QcTau_1_1_1,H_1_1_1,QcH_1_1_1,LE_1_1_1, QcLE_1_1_1,Fc_1_1_1, QcFc_1_1_1,E_1_1_1, QcE_1_1_1,Sa_1_1_1,Sw_1_1_1,Sc_1_1_1,ustar_1_1_1,MO_length_1_1_1,ZL_1_1_1,Fetchmax_1_1_1,Fetch70_1_1_1,Fetch90_1_1_1
yyyymmddHHMM,[µmol+1mol_a-1],[mmol+1mol_a-1],[kg+1m-1s-2],[#],[W+1m-2],[#],[W+1m-2],[#],[µmol+1s-1m-2],[#],[mmol+1s-1m-2],[#],[W+1m-2],[W+1m-2],[µmol+1s-1m-2],[m+1s-1],[m],[#],[m],[m],[m]
201801010030,407.44744139567683,0.62210633669261739,0.59678259408577028,0,5.4133632806309251,0,2.4906264890658245,0,-0.13036362989035949,1,5.40552725255073474E-002,0,-9999.,-9999.,-9999.,0.66504953543599188,-4612.8997753536596,-4.68252098504437671E-003,107.76039158300210,197.02036422787614,295.17240742428686
201801010100,407.24848037939154,0.62829980885658732,0.87159789813068700,0,13.012196425442902,0,2.1818256585109137,1,-0.26379815397926887,1,4.73561448866220425E-002,1,1.7577258847668911,0.25843176109372273,-0.18019219826819954,0.80387709905047766,-3388.9044611682853,-6.37374120383247828E-003,120.41012076568403,220.14810359801692,329.82197542665904
201801010130,407.25204668233670,0.63186676399359942,0.62821394475793046,0,7.3424627188037883,0,9.74752189108233219E-002,2,7.85634984593408525E-002,2,2.11568260350672790E-003,2,0.0000000000000000,0.14882244694289690,3.22957460846489764E-003,0.68250541313164270,-3675.2640329700084,-5.87712877394141412E-003,113.96544153332117,208.36517453623867,312.16900056131976
201801010200,406.66235488566082,0.63440707523649176,0.40962611252645215,0,5.2845880082323946,0,0.34354565990687774,1,0.24722749888821291,1,7.45611474721287644E-003,1,-1.8455335599320557,0.10600049564779795,-0.53404046897427271,0.55110625884871711,-2688.0396782062094,-8.03559567037871215E-003,100.85890516786435,184.40224594480688,276.26816691405145
201801010230,407.24036661808378,0.63689405989126791,0.77185155775639647,0,11.539147149575644,0,0.77941480847196665,2,0.59543018498176281,2,1.69161423773474678E-002,2,0.29874053747619644,0.10375330450080548,0.52335715361677260,0.75657573555390278,-3184.7550248603634,-6.78231130224751268E-003,113.80019696496484,208.06305476323129,311.71637008792402
201801010300,407.43695346623201,0.64527686208121726,0.79480138333695960,0,13.990286085119310,1,4.3049600914125845,0,-1.4329156483070724,0,9.34454231797153673E-002,0,3.6789408191853870,0.34942569475866458,0.17787257174715798,0.76801376715459024,-2747.4387170249179,-7.86186780660560157E-003,114.47079820979110,209.28912771607102,313.55325079102192
201801010330,407.43076936838594,0.65749439199719639,0.94947206252312166,0,-3.7349960188970672,2,1.9475409876352499,0,0.59788739449966011,1,4.22845465553562533E-002,0,6.9378110378928426,0.50860344882048714,-5.58942731976561774E-003,0.83987291986729629,13458.470255644002,1.60493723207076459E-003,117.16214922422660,214.20977573283997,320.92527817960865
201801010400,407.46445363627845,0.66808534853436985,0.94736658034443377,0,6.1257737266424899,1,2.9893241679130376,1,-2.1483917469077638,0,6.49128447099785594E-002,1,4.0845561496830971,0.44053539294909844,3.04249841830312520E-002,0.83922080032611990,-8186.5523354354900,-2.63847332979286111E-003,112.75642132961846,206.15470000665334,308.85730691480353
201801010430,407.57961673492673,0.67308987363359951,0.56533784653340224,0,-21.191789343414914,0,-1.6402319878630840,0,0.96124247703398158,0,-3.56152548276754063E-002,0,-1.7534208958268542,0.20822469761240447,0.10404314917027982,0.64822115611800113,1090.4907476833339,1.98075958424109404E-002,110.05092870890553,201.20819662337522,301.44654347572146
201801010500,407.84147830249594,0.68043045348629938,0.57363394808564350,0,-19.425245480873908,0,-3.4713647615438621,0,1.5669509925245750,0,-7.53742449603316683E-002,0,-0.52605915516154222,0.30544601300940671,0.23659119661204772,0.65294088167266506,1215.8213429704642,1.77657680751247722E-002,110.49666930586028,202.02315259628048,302.66749602755522
201801010530,407.86652664445353,0.69718464077448483,0.86571434492258026,0,1.6700738421837338,2,1.3995803635404880,1,-0.36024873617497449,2,3.03958958174268962E-002,1,6.1567689595528101,0.69621950629342011,2.26057495277122884E-002,0.80258043143194580,-26259.658113382804,-8.22554501918359494E-004,119.12315357424322,217.79511711492964,326.29677290471886
201801010600,407.85624219997760,0.71380375496196358,0.73146465301095376,0,-0.26575519482447141,2,1.7858039490022291,0,-0.82211818408088710,1,3.87950857516105169E-002,0,8.1955671309886942,0.68951806912973201,-9.26961196908763010E-003,0.73820826305719511,128411.26129320082,1.68209546284891836E-004,108.46352123094904,198.30590947602252,297.09838846302529
201801010630,407.86930121706996,0.71491722007850400,0.70398512814152081,0,-3.4768725613368834,1,-0.70325355142561241,0,0.47036145120921069,0,-1.52784128688219917E-002,0,1.5217514576145661,4.61897916809590678E-002,1.17691794815035673E-002,0.72424678227507511,9269.5557332508961,2.33020876313613096E-003,107.70019008031908,196.91029668068705,295.00750618166450
201801010700,407.85787698239182,0.71800544213603446,0.66491019854300271,0,3.3789089067589839,0,2.4433085564604600,0,-0.47845379209560462,0,5.30857144946737386E-002,0,2.1506925874490479,0.12805407609311178,-1.02922743324546304E-002,0.70398322703752159,-8759.7572299159110,-2.46582176115939591E-003,105.19055166411744,192.32187724775034,288.13321775163286
201801010730,407.47817679801227,0.72138699824703112,0.84871142748079065,0,6.9201910377427751,0,3.2626045858627966,1,-0.76612240362954798,0,7.08864766120867879E-002,1,-2.62323284106231874E-002,0.14024068403488238,-0.34213474406900102,0.79528913710965798,-6167.2161784232831,-3.50239060462483737E-003,117.83717011356866,215.44392920542793,322.77426497375291
201801010800,407.26598127133042,0.72803449355223515,0.92644264360387507,0,5.0135578415576187,1,2.2135778214144115,0,-6.77260961623479263E-002,1,4.80956537783283899E-002,0,0.78700138455319268,0.27568956943948597,-0.19120954052468742,0.83089540829845487,-9709.0079329949895,-2.22473811424077524E-003,117.03594414012551,213.97903258805610,320.57958290181625
201801010830,407.86736810940215,0.72528919864996455,0.78106211911553625,0,8.3388947886244331,0,2.2996962722948036,0,-0.19699531596757308,0,4.99633980200250433E-002,0,-1.9247993593466197,-0.11392284900059797,0.54219716011302588,0.76271916585672783,-4515.8601535170383,-4.78314191886068663E-003,112.45124238441990,205.59673556299791,308.02137450377398
201801010900,408.01763482925071,0.71725572717693709,0.82481847637911698,0,-3.5310708825799586,1,1.1773772716504995,0,0.26658638148941027,0,2.55759233013896671E-002,0,-4.2907768777164232,-0.33370945319775880,0.13559501795011253,0.78345056673607771,11559.792339319569,1.86854567677047201E-003,123.44637578183195,225.69934613140558,338.13874831050788
201801010930,407.64886803959763,0.71109340556036615,0.64757478985735439,0,0.92156935387142402,2,-3.4209653452461111,1,1.2473299140073268,1,-7.42998729378583356E-002,1,-4.9778593502099628,-0.25623634830081587,-0.33303323383969718,0.69390408862717745,-30775.856618107711,-7.01848863803554543E-004,112.45849789517044,205.61000095067635,308.04124847178645
201801011000,407.57163917643607,0.70588951554358170,0.58842530594805320,0,-1.6109125819047476,2,1.4567177627439061,0,-1.3325320883760143,0,3.16341964939897274E-002,0,-3.7886742914354028,-0.21656689408020391,-6.97951094650070963E-002,0.66121840538572985,15235.077727074848,1.41778075484405336E-003,111.86395613036271,204.52298898523748,306.41270646804463
201801011030,407.64134231864375,0.71374434916412843,0.77211131649991882,0,6.2990186541717312,0,-1.6545444488066301,1,1.0506091992141533,1,-3.59333933056247209E-002,1,2.5074240031484254,0.32675350714949303,6.29731497292750214E-002,0.75754949438943220,-5859.4818849485910,-3.68633275503155037E-003,118.90512180816008,217.39648550886446,325.69955011864391
201801011100,407.52755041877953,0.70957435092563348,0.66151111995617506,0,9.3057472590508414,0,2.7868531742544951,1,-0.65298100840958662,1,6.05186414540945378E-002,1,-2.9209298672540953,-0.17357184154672933,-0.10285604714341075,0.70102188260605391,-3143.1009301307035,-6.87219420570811274E-003,107.54935712672722,196.63452593581789,294.59435135384138
201801011130,395.77106843501633,0.70454986208001957,0.61072507406917875,0,-6.0779663913563970,0,-2.8718258696469148,1,1.6296028063914525,0,-6.23574689904369747E-002,1,-2.9230080274614529,-0.20930962268490452,-10.634205954475847,0.67333449124595113,4265.1251144635971,5.06432974890972786E-003,110.43458333408283,201.90963963856620,302.49743293213015
201801011200,407.55901809461284,0.70557463385535291,0.61337941392475914,0,2.5739585483359644,1,-0.45902094186154363,2,2.1022778769447674,0,-9.96691130876753602E-003,2,-0.14926875861679109,4.27032475178153736E-002,10.665964031249837,0.67469204486126433,-10134.481250435751,-2.13133750669983928E-003,112.16162726760959,205.06722676146470,307.22807382994040
201801011230,408.45909075304775,0.69593609701807158,0.55493255467291602,0,0.11345406755899617,2,-6.6324102312608977,0,4.3132798102100596,0,-0.14398707160046981,0,-4.9746988468787148,-0.40211642687550725,0.81521167582120346,0.64142341769006117,-197593.82907461442,-1.09315154735138595E-004,116.07045066714976,212.21380259110677,317.93494669936541
201801011300,408.98466424609518,0.70237146091183333,0.43290977927288693,0,-15.797553321005120,0,1.7218213667090112,1,-2.9385112052038163,0,3.73836487483963781E-002,1,2.7150944592937321,0.26837868797645598,0.47588494336912590,0.56661242328403671,978.28884263591556,2.20793686471989700E-002,116.14434076186775,212.34889725028827,318.13734311628934
201801011330,410.16428938378425,0.70631600694166019,0.34042709104950408,0,-5.2756980103777948,1,-3.8164260391358527,0,0.81211538677468220,0,-8.28626915521063212E-002,0,0.56236552594654032,0.16450357809921126,1.0681310126112282,0.50245107218437179,2042.8448307688686,1.05734902987567464E-002,108.09442449695352,197.63108292891312,296.08737532595831
201801011400,410.49974811447817,0.72999275583622514,0.35343134431228929,0,4.1824572535567786,2,-4.7755170817729660,1,0.89086275107813939,1,-0.10371883994574231,1,8.8262275589443497,0.98560343937004991,0.30328888140597432,0.51235119603536372,-2731.8074292767456,-7.90685308507220290E-003,106.24484949492806,194.24946993351907,291.02110284829081
201801011430,410.90059551842819,0.76045658015301754,0.52444198876235060,0,13.868914416379493,0,-2.3714939374924668,1,0.51403422419459877,1,-5.15267703589508685E-002,1,11.324541990247193,1.2654175824904692,0.36177572381201051,0.62466183844450029,-1493.0230135620400,-1.44672920670304538E-002,116.62352447541554,213.22499790646057,319.44990154567722
201801011500,411.15852482215661,0.78171623185075156,0.55028839128640838,0,13.442941708132309,0,-9999.,-9999.,0.20620040966997788,0,-9999.,-9999.,8.2056584498459362,-251.91563364676719,0.23251343991641232,0.64025009864698035,-1658.6350876157348,-1.30227559764515208E-002,112.10846171242427,204.97002317030180,307.08244513756500
201801011530,411.23432901048409,0.81053111220715979,0.46582253788751338,0,51.022651803114570,1,-9999.,-9999.,0.49116704881212536,1,-9999.,-9999.,10.335102373845515,-340.85859861742091,6.82429865660795359E-002,0.58946547025169194,-341.09997996416229,-6.33245419781889446E-002,106.39260573977758,194.51961547354128,291.42583009420667
201801011600,411.41424192754243,0.84153964967440475,0.55279234541210809,0,54.995084676022110,1,-9999.,-9999.,-0.42830648598822796,0,-9999.,-9999.,10.547789461656112,-366.16691691247610,0.16174471482227543,0.64258445254013363,-410.02423776172265,-5.26798125835487990E-002,118.37312829909854,216.42383170367259,324.24233747773735
201801011630,411.59807855404068,0.84357279952280162,0.39522973088698404,0,64.627991265634051,0,-9999.,-9999.,-0.56640475624999320,0,-9999.,-9999.,2.6773205829138127,-23.996759368441960,0.16520624769727832,0.54345155717670712,-211.06060927302926,-0.10234027123487602,101.67729357507865,185.89852096478990,278.50985955099316
201801011700,411.65923214613895,0.82800792972937598,0.55960197331356298,0,85.734275069135577,0,-9999.,-9999.,0.11928808307137118,0,-9999.,-9999.,-5.4197250050283996,183.88104531460229,5.49972729800778035E-002,0.64641584785136852,-267.73329603472871,-8.06773020760114257E-002,120.30029317817247,219.94730374033330,329.52114064932414
201801011730,411.55339553757017,0.86729450654445617,0.48788896789079550,0,88.493420512384318,0,-1.1543594870788523,2,0.87312326774357718,0,-2.51155776415646209E-002,2,12.035053445157848,1.6203648697789053,-9.49744177091428610E-002,0.60424119684465394,-211.80400997154132,-0.10198107204345304,107.73771653337570,196.97890700532290,295.11029695040708
201801011800,411.38454171248264,0.88513373354071523,0.62435541726719135,0,165.02252476794513,0,-7.8561317962502661,2,-6.47211081039689162E-002,0,-0.17097499814106745,2,7.8669460186312525,0.73424192990441628,-0.15125087661861031,0.68416224469395370,-164.80151481636216,-0.13106675641949539,112.42923808521380,205.55650468613788,307.96110131921205
201801011830,409.25489654775640,0.90680259644230243,0.42577620564598873,0,90.812033353326314,0,-5.7700252410062527,2,1.2458919252432237,0,-0.12562399755591389,2,11.026716519538358,0.88975327055819420,-1.9038626592961385,0.56554211323093218,-169.11719370691100,-0.12772208151368653,114.87101291954460,210.02084784743539,314.64950088467123
201801011900,408.42072725279655,0.95114023405481662,0.57736595065021856,0,104.12465595834398,0,6.4456891787578012,0,-1.3083882906724069,0,0.14045384541707273,0,23.703819580963987,1.8118608591936773,-0.74279807287469679,0.65987151616419504,-234.24093766655531,-9.22127456249677846E-002,135.22684562619011,247.23780219504397,370.40728031440341
201801011930,408.48617462788320,0.96143423015230167,0.39045603311692589,0,36.372044288032605,2,5.4950423191461413,0,-0.46476938518595867,1,0.11986596796023234,0,29.383386160342777,0.41815582152507136,5.79924205775463053E-002,0.54398821954443710,-375.58206405353218,-5.75107335182047652E-002,110.67996358332331,202.35827299419438,303.16956745056211
201801012000,409.62932076258528,0.96748640493186744,0.17724077118415194,1,63.975490833731023,0,7.3985567521705384,0,-0.19503465300155343,0,0.16157005828328411,0,31.004175228446371,0.24431473677318444,1.0077523667939048,0.36745080492656129,-65.791180587799090,-0.32831148198008930,95.553356901378777,174.70201159583993,261.73544824516972
201801012030,409.65959461375053,0.97038437963309765,0.21423161533848223,0,44.159526092777476,0,6.0725570735775136,0,-6.01671351316688252E-002,0,0.13269803955231924,0,17.628954978101401,0.11660487746039347,2.66184461533328053E-002,0.40450875885687754,-127.16456082980402,-0.16985864504269599,105.39669932205996,192.69878091389259,288.69788812435422
201801012100,409.44623369780106,0.98951354045738371,0.33217925707617502,1,38.460275802421791,0,5.4275638802923396,0,-0.32696153854428101,0,0.11869346434479532,0,20.701094205966207,0.76658943678912450,-0.18698365363085281,0.50453012386079366,-283.28212743579570,-7.62490743610202554E-002,113.62455219597570,207.74192010649330,311.23525185373433
201801012130,409.81717451456001,1.0024402163060535,0.32741497367244360,0,18.871651271556246,0,4.8731893647498570,0,-0.47971562027515957,0,0.10658560756055094,0,3.9864731861538814,0.51764553849627326,0.32488938199520390,0.50104890515169920,-565.46543520711646,-3.81986212686694776E-002,130.59477632066606,238.76890218181248,357.71932485894683
201801012200,409.89827987825464,0.99810204282052151,0.28288457696495845,0,-11.666926409300036,0,7.6903027100142927,0,8.36511037227728460E-002,0,0.16811133678215406,0,-14.600588393970185,-0.17419237427777462,7.11910446323380519E-002,0.46522460939091387,732.13591132598856,2.95027189157812710E-002,112.08472069064547,204.92661701067959,307.01741480081307
201801012230,409.52074261992624,0.97778478724908469,0.28447908526837945,0,-33.122591996699967,0,5.9849751160453257,0,0.15381909312707998,0,0.13077564787461057,0,-11.939270376028439,-0.81767174696538036,-0.33200016306774305,0.46610118010633228,259.34868576172107,8.32855579605488866E-002,108.57964284498017,198.51821682156071,297.41646355410512
201801012300,409.47372763613851,0.95195329103992554,0.21232233747726287,0,-35.968961456461308,0,4.0499711557908640,0,5.51030678021375842E-002,0,8.84561256211505581E-002,0,-11.939493247706009,-1.0423052481789870,-4.14340739043649389E-002,0.40223450171181790,153.52723063294621,0.14069165392321448,106.75245978393120,195.17754343581498,292.41152607186444
201801012330,409.89892491291090,0.92688238428270742,0.21771440131296238,0,-17.293020698535354,1,5.1253110344279733,0,-0.20470356512128873,1,0.11184936561814915,0,-23.065246256663670,-1.0161808269910892,0.37610120798762114,0.40656177285511286,329.78559180689115,6.54971003483016678E-002,111.63100340478275,204.09707710641615,305.77461286226446
201801020000,409.62469882688725,0.90181145111837668,0.26893349209140482,0,-30.880305711682599,0,2.9494291836216138,0,0.33891447027830068,0,6.43378989740727297E-002,0,-11.755287626880653,-1.0184328608656930,-0.24299624981614767,0.45145562958270447,252.86247366716543,8.54219279228889128E-002,111.07484667474222,203.08024522681063,304.25121341558707
